This is the latest recevied weather packets stored in our database for station/object KD8NVS-13. If no packets are shown the sender has not sent any weather packets the latest 10 day(s).
| Time | Temp. | Humidity | Pressure | Rain* | Wind** | Luminosity | Snow |
|---|---|---|---|---|---|---|---|
| 1777588526 | 13.33° C | 42% | 1004.9 hPa | 0 mm | - | 189 W/m² | - |
| 1777588222 | 13.33° C | 44% | 1005.2 hPa | 0 mm | - | 67 W/m² | - |
| 1777587918 | 13.89° C | 43% | 1005.2 hPa | 0 mm | - | 60 W/m² | - |
| 1777587615 | 13.89° C | 42% | 1004.9 hPa | 0 mm | - | 265 W/m² | - |
| 1777587309 | 13.89° C | 42% | 1005.2 hPa | 0 mm | - | 309 W/m² | - |
| 1777587005 | 13.33° C | 44% | 1004.9 hPa | 0 mm | - | 293 W/m² | - |
| 1777586700 | 12.78° C | 45% | 1004.9 hPa | 0 mm | - | 91 W/m² | - |
| 1777586396 | 12.78° C | 45% | 1004.9 hPa | 0 mm | - | 97 W/m² | - |
| 1777586096 | 13.33° C | 46% | 1004.5 hPa | 0 mm | - | 74 W/m² | - |
| 1777585794 | 13.33° C | 45% | 1004.9 hPa | 0 mm | - | 75 W/m² | - |
| 1777585488 | 13.33° C | 45% | 1004.5 hPa | 0 mm | - | 378 W/m² | - |
| 1777585185 | 13.89° C | 44% | 1004.9 hPa | 0 mm | - | 400 W/m² | - |
| 1777584881 | 14.44° C | 45% | 1004.9 hPa | 0 mm | - | 421 W/m² | - |
| 1777584579 | 13.89° C | 46% | 1004.9 hPa | 0 mm | - | 443 W/m² | - |
| 1777584274 | 13.33° C | 47% | 1004.9 hPa | 0 mm | - | 484 W/m² | - |
| 1777583970 | 13.89° C | 46% | 1004.5 hPa | 0 mm | - | 453 W/m² | - |
| 1777583665 | 13.33° C | 46% | 1004.9 hPa | 0 mm | - | 544 W/m² | - |
| 1777583364 | 13.33° C | 46% | 1004.9 hPa | 0 mm | - | 552 W/m² | - |
| 1777583058 | 13.89° C | 45% | 1004.9 hPa | 0 mm | - | 483 W/m² | - |
| 1777582756 | 13.89° C | 46% | 1005.2 hPa | 0 mm | - | 276 W/m² | - |
| 1777582451 | 13.89° C | 48% | 1004.9 hPa | 0 mm | - | 165 W/m² | - |
| 1777582151 | 13.33° C | 48% | 1004.9 hPa | 0 mm | - | 516 W/m² | - |
| 1777581850 | 13.33° C | 48% | 1005.2 hPa | 0 mm | - | 190 W/m² | - |
| 1777581550 | 13.33° C | 49% | 1005.2 hPa | 0 mm | - | 182 W/m² | - |
| 1777581244 | 12.78° C | 50% | 1005.2 hPa | 0 mm | - | 176 W/m² | - |
* Rain latest hour (hover to see other rain measurements)
** Current wind speed in m/s (hover to see current wind gust speed)